Wind_Speed
23 23 24 24 24 24 22 22 21 21 22 23 23 23 23 23 23 23 22 21 22 22 22 22 22 22 22 22 22 22 22 22 21 21 20 20 20 19 19 20 20 20 20 20 19 19 19 19 19
24 24 24 24 24 23 22 22 22 22 22 23 23 23 24 24 23 23 22 22 23 23 22 22 22 22 22 22 22 22 22 22 22 22 21 21 21 21 21 21 21 20 20 21 21 21 20 20 20
24 24 25 25 24 23 23 23 23 23 23 23 23 24 24 24 24 23 23 23 23 23 23 23 23 23 23 23 23 23 23 23 23 23 23 22 22 22 22 22 23 22 22 22 22 22 22 21 21
23 24 24 24 23 23 24 24 25 24 24 24 24 24 24 25 24 24 24 24 24 24 24 24 24 24 24 24 24 25 25 25 25 25 25 24 24 24 24 24 24 24 24 24 24 24 24 24 24
23 23 24 23 23 23 24 24 25 25 25 25 24 24 25 25 25 25 25 25 25 24 24 25 25 26 26 26 26 26 26 27 27 27 27 27 27 27 27 27 27 27 27 28 28 27 27 27 27
22 23 23 22 22 23 23 24 24 25 25 25 25 25 25 26 26 26 26 26 26 26 26 26 26 27 27 28 28 28 28 28 29 29 29 29 29 30 30 30 30 30 30 30 31 30 30 30 30
22 22 21 21 22 22 23 23 24 24 24 25 25 25 25 26 26 27 27 27 27 27 27 27 28 28 29 29 30 30 30 31 31 31 32 32 32 32 32 32 32 33 33 33 33 33 33 33 33
22 22 21 20 21 22 22 23 23 24 24 25 25 25 25 26 26 27 27 27 28 28 29 29 29 30 30 31 31 32 32 33 33 33 34 34 34 34 34 35 35 35 35 34 34 34 34 34 34
23 22 21 20 21 21 22 22 23 23 24 25 25 26 26 26 26 26 27 27 28 28 29 30 30 31 32 32 33 33 34 34 35 35 35 36 36 36 36 36 37 37 36 36 36 36 36 36 36
24 22 21 22 22 21 22 22 23 23 24 24 25 26 26 26 26 26 27 28 29 29 30 30 31 32 33 33 34 34 35 35 36 36 36 37 37 37 37 38 38 38 38 38 39 39 38 38 37
24 22 22 22 22 22 22 22 22 23 23 24 25 25 26 26 27 27 27 28 29 30 30 31 32 33 33 34 35 35 36 36 37 37 38 38 39 39 39 40 40 40 40 40 41 41 41 40 40
24 23 23 22 22 22 22 22 22 22 22 24 24 25 26 26 27 27 28 28 29 30 31 32 32 33 34 35 36 36 37 38 38 39 39 39 40 40 41 41 42 42 42 42 43 43 43 43 43
25 24 24 23 23 23 22 22 22 22 23 24 24 25 26 27 28 28 29 29 30 31 31 32 33 34 35 37 38 38 38 39 40 40 41 41 42 43 43 43 44 44 44 44 45 45 46 46 46
25 25 25 24 24 24 23 23 22 22 23 24 24 24 25 26 28 29 30 30 31 32 32 34 34 35 37 38 38 39 40 41 41 42 43 43 44 45 45 46 46 47 47 47 47 48 48 48 48
26 26 26 25 24 24 24 23 23 23 23 24 24 24 25 26 28 29 30 31 32 33 34 35 36 37 37 38 38 39 40 41 42 43 44 45 46 47 47 48 49 49 50 50 50 50 51 51 51
27 27 27 26 26 25 25 23 24 24 24 24 25 25 26 27 28 29 30 31 33 34 35 36 36 37 38 38 38 39 40 41 42 43 45 47 48 48 49 50 51 51 52 52 52 52 52 53 54
28 28 27 27 27 27 27 25 25 25 25 25 25 26 26 26 27 28 30 31 33 34 35 36 36 37 38 38 39 40 40 42 43 45 46 47 48 49 50 50 51 52 53 53 53 54 54 54 55
28 28 28 28 28 28 28 27 27 27 27 26 27 26 27 27 28 29 30 32 33 34 34 35 36 37 37 38 39 40 41 43 44 46 46 47 48 49 50 50 51 52 53 54 54 54 55 56 57
31 31 30 29 30 30 30 29 29 29 28 28 28 28 28 28 29 30 31 32 33 33 34 35 36 37 37 38 39 40 42 42 43 44 44 46 48 49 50 50 51 51 52 53 53 54 55 57 58
32 32 31 31 31 32 31 31 30 30 29 29 29 29 29 29 30 31 31 33 33 33 34 34 35 36 37 38 39 41 41 41 41 42 43 45 46 47 48 49 49 50 51 52 52 53 54 55 57
33 33 32 32 32 33 33 32 30 30 30 29 29 29 30 30 31 32 32 33 33 34 34 34 35 36 37 38 39 40 40 41 41 42 43 43 44 46 47 48 50 50 51 52 53 53 54 55 55
34 33 33 33 34 34 34 34 31 30 30 30 30 30 31 31 32 33 33 33 33 34 34 35 35 37 38 39 39 39 40 41 42 42 43 45 44 45 48 49 50 51 52 52 52 52 53 54 54
35 34 34 34 35 35 34 35 32 31 30 30 30 31 32 32 33 34 34 34 34 34 34 35 36 37 38 39 40 40 41 41 42 43 44 45 45 46 47 49 49 50 51 51 52 52 52 52 53
36 36 36 36 37 37 35 36 34 31 30 31 32 32 32 33 33 34 34 34 34 35 35 36 37 37 38 39 40 41 41 42 43 44 44 45 46 46 47 47 49 49 50 51 51 51 52 52 53
37 37 37 38 39 38 36 36 35 32 31 32 32 32 33 33 33 34 34 34 35 35 36 37 37 38 39 40 41 41 42 42 43 44 45 45 46 46 46 47 48 49 50 50 51 51 52 52 52
37 37 37 39 39 38 37 37 34 33 32 32 32 33 33 33 34 34 34 35 35 36 36 37 38 38 39 41 41 42 42 43 44 45 45 45 45 46 46 47 48 49 49 50 50 51 51 51 51
38 37 37 38 40 39 39 37 35 33 32 32 32 33 32 32 33 34 34 35 36 37 37 37 38 38 39 41 42 43 43 43 44 45 45 45 46 47 47 47 47 48 50 50 50 50 50 51 51
38 37 37 38 39 40 39 37 34 32 32 32 32 32 32 32 33 33 34 34 35 36 38 38 38 39 40 42 43 43 44 44 45 45 45 46 47 48 48 47 47 48 49 49 49 50 50 51 50
38 38 38 38 39 39 39 36 33 32 31 31 31 32 32 32 32 33 34 35 35 36 37 38 38 40 41 42 43 44 44 45 45 45 46 47 47 47 47 46 47 48 48 49 49 49 50 50 50
39 38 38 38 38 38 38 36 33 32 32 32 32 32 32 32 32 33 34 35 35 36 37 38 39 40 41 41 42 44 44 44 44 45 45 46 47 47 47 47 47 47 47 48 48 49 49 49 50
Wind_Direction
239 240 240 241 242 242 243 243 244 244 244 245 246 247 248 249 250 250 250 249 249 250 251 252 253 254 255 256 257 258 259 260 262 262 263 263 264 265 266 266 267 268 270 272 272 272 272 273 273
240 240 241 242 243 244 244 245 245 245 245 246 247 247 248 249 250 251 250 249 250 250 251 252 253 254 255 256 256 258 259 260 262 263 263 264 265 265 266 266 267 269 270 272 272 271 271 272 273
239 240 241 243 244 246 246 245 246 246 247 248 249 248 249 250 251 251 251 251 251 252 253 253 254 255 256 258 258 259 260 261 262 263 264 264 264 266 267 267 267 269 270 271 272 270 269 270 272
240 241 242 244 245 246 246 246 247 248 249 249 250 250 250 250 251 252 252 252 253 253 254 255 256 257 258 259 259 260 260 261 261 262 264 264 264 265 266 267 268 269 269 271 272 271 270 270 271
240 241 243 245 246 247 247 248 248 248 248 249 250 251 251 251 252 253 253 254 254 255 256 257 258 259 259 260 260 260 260 261 262 263 264 264 264 265 265 266 268 269 270 271 272 271 271 271 272
242 243 244 245 246 247 249 249 249 248 248 249 250 251 252 253 254 254 255 256 257 258 258 259 259 260 261 261 261 261 261 261 262 263 263 265 266 266 266 267 268 269 269 270 271 271 271 272 272
242 243 244 245 246 247 249 250 249 248 248 249 250 252 253 254 255 256 256 257 258 258 259 260 260 261 262 262 262 262 262 262 263 263 263 264 265 266 267 267 268 270 271 271 271 271 271 272 273
244 244 245 247 248 248 249 250 250 250 249 250 251 253 254 255 256 257 258 258 259 259 260 261 262 262 263 263 264 264 264 264 264 264 265 265 265 266 267 267 268 269 270 271 271 271 271 271 272
245 246 247 247 248 248 249 250 251 251 251 251 252 253 254 255 257 258 259 259 260 260 260 261 262 263 264 264 265 265 266 265 265 265 265 266 266 266 266 267 268 268 269 270 271 270 271 272 272
246 247 247 247 247 248 249 251 251 251 252 252 253 253 254 255 256 258 259 260 261 261 262 263 263 264 265 265 265 266 266 266 266 266 266 266 266 266 266 267 268 268 269 270 271 271 270 271 271
246 246 246 246 247 248 250 251 252 252 252 253 254 254 255 257 258 259 260 261 263 264 264 264 265 265 265 265 265 266 266 266 267 267 266 266 266 267 267 267 268 269 269 270 270 271 270 271 271
245 244 245 245 247 248 249 250 251 251 252 254 255 256 257 258 258 259 261 263 265 266 266 266 266 266 266 266 267 267 267 268 268 268 268 267 267 267 267 267 267 268 269 270 270 271 271 270 270
244 244 245 245 247 248 249 250 250 251 252 254 256 258 259 259 260 261 263 264 266 266 267 268 269 269 268 268 268 268 268 268 268 268 268 268 268 268 268 269 268 268 269 270 270 270 271 270 270
244 244 244 245 247 249 250 251 252 253 254 257 259 261 261 262 263 264 265 266 266 267 269 270 271 271 271 271 270 269 270 269 269 269 269 269 269 269 269 269 269 270 270 270 271 270 270 270 270
244 244 244 245 248 250 252 251 253 254 256 259 261 263 264 265 266 267 267 267 268 269 270 271 271 271 272 272 272 272 271 272 271 270 270 270 270 270 270 270 270 271 271 271 271 271 270 270 270
244 245 246 247 249 251 253 252 254 256 258 260 262 263 264 266 268 269 269 270 270 270 271 272 272 273 273 272 272 273 273 273 273 272 272 272 272 272 271 271 271 271 271 271 271 270 270 270 270
245 247 248 249 250 252 253 253 255 257 259 262 263 265 267 269 270 272 272 273 273 273 273 273 273 273 273 273 274 275 276 276 275 275 273 273 273 273 273 272 271 272 272 271 271 270 270 270 270
248 249 249 251 251 252 253 254 255 258 261 263 265 267 269 271 271 273 275 276 276 276 276 274 274 274 274 275 276 277 278 279 279 278 276 274 274 274 274 273 273 273 273 272 271 271 271 271 271
248 249 250 251 253 253 253 254 256 259 262 264 266 269 271 272 273 276 277 278 279 279 278 276 274 275 276 277 278 279 280 281 281 280 278 276 275 274 274 275 275 274 273 272 272 272 272 272 272
249 250 251 252 253 254 255 256 258 261 262 264 266 269 271 273 275 277 279 279 280 279 279 278 277 276 278 279 281 282 282 282 283 283 282 280 277 275 275 276 277 277 275 274 273 273 273 273 272
249 252 252 254 254 255 256 256 259 261 262 264 267 270 272 274 276 278 280 280 279 279 279 278 278 278 279 281 283 284 283 282 283 284 283 283 280 277 277 277 278 278 277 275 275 275 275 274 273
250 252 254 254 255 256 257 258 257 261 263 265 268 271 273 275 276 278 280 280 279 279 279 280 280 280 282 283 284 285 284 284 284 285 284 284 284 282 280 279 278 278 278 277 276 276 276 276 274
251 252 254 255 256 256 257 260 258 260 263 266 270 272 274 275 277 278 280 279 278 280 281 282 281 282 283 284 285 286 286 285 285 285 285 285 285 284 283 281 280 279 279 278 277 276 276 276 275
250 252 254 255 256 256 257 261 260 261 263 266 269 272 274 276 277 278 279 279 279 281 282 283 283 283 284 285 286 286 286 285 285 286 287 287 286 285 285 284 282 281 280 280 279 277 277 276 276
250 252 254 255 256 258 260 262 263 264 265 267 270 273 275 277 279 279 280 280 281 282 283 283 283 284 285 285 286 286 286 286 286 286 287 288 287 285 285 286 285 283 282 281 280 279 278 277 276
250 252 255 258 260 261 262 262 264 265 267 269 271 274 276 277 279 280 280 281 282 283 284 284 285 285 285 286 286 286 286 287 287 287 288 288 287 286 287 288 287 286 284 281 280 279 278 277 277
248 251 254 258 260 261 261 261 263 266 269 271 273 274 276 278 279 280 281 282 283 283 284 285 286 286 287 287 286 286 286 287 288 288 288 289 288 288 288 288 288 287 286 284 282 281 279 278 278
249 251 253 256 259 261 261 262 265 268 269 271 273 276 278 279 280 280 281 283 284 284 284 285 286 287 288 287 286 286 287 287 288 289 289 289 290 289 288 288 289 289 288 286 284 283 281 279 279
248 250 252 255 258 260 263 265 267 270 270 273 275 278 279 280 280 281 282 283 284 285 285 286 288 289 289 288 287 287 287 288 289 289 289 290 291 290 290 290 291 292 291 288 286 285 283 280 279
247 249 251 255 258 260 263 265 268 270 272 274 275 277 279 280 282 282 283 284 286 287 287 287 289 290 290 289 289 289 288 288 289 290 291 292 292 291 291 291 292 292 293 291 288 287 285 283 281
Height
5797 5798 5800 5802 5804 5806 5807 5809 5810 5812 5813 5815 5816 5817 5819 5821 5823 5826 5826 5826 5827 5828 5829 5830 5831 5832 5833 5834 5835 5837 5838 5839 5840 5841 5842 5843 5844 5844 5845 5846 5846 5847 5848 5848 5849 5850 5850 5850 5851
5793 5795 5797 5798 5800 5802 5804 5805 5807 5808 5809 5811 5812 5814 5815 5816 5818 5819 5821 5821 5823 5824 5825 5826 5827 5829 5830 5831 5832 5833 5834 5835 5836 5837 5838 5839 5840 5840 5841 5842 5842 5843 5844 5844 5845 5846 5846 5847 5847
5789 5790 5793 5794 5796 5798 5800 5801 5803 5804 5805 5807 5808 5809 5811 5812 5814 5815 5816 5817 5819 5820 5821 5822 5823 5825 5826 5827 5828 5829 5830 5831 5832 5832 5833 5834 5835 5836 5837 5838 5839 5839 5840 5841 5841 5842 5842 5843 5843
5785 5787 5789 5791 5792 5794 5795 5797 5798 5800 5801 5803 5804 5806 5807 5809 5810 5811 5812 5813 5815 5816 5817 5818 5819 5820 5821 5822 5823 5824 5825 5826 5827 5828 5829 5830 5831 5832 5833 5833 5834 5835 5836 5836 5837 5837 5838 5838 5839
5781 5782 5784 5786 5788 5790 5791 5792 5794 5795 5797 5798 5800 5801 5802 5804 5805 5806 5807 5809 5810 5811 5812 5813 5814 5815 5817 5818 5819 5819 5820 5821 5822 5823 5824 5825 5826 5827 5828 5829 5829 5830 5831 5831 5832 5832 5833 5833 5834
5777 5778 5781 5782 5783 5785 5786 5787 5789 5791 5792 5794 5795 5797 5798 5799 5800 5802 5803 5804 5805 5807 5808 5809 5809 5810 5811 5812 5813 5814 5815 5816 5817 5818 5819 5820 5820 5821 5822 5823 5824 5824 5825 5826 5826 5827 5827 5828 5828
5774 5774 5776 5778 5779 5780 5782 5783 5784 5786 5787 5789 5790 5792 5793 5794 5796 5797 5798 5799 5800 5802 5802 5803 5804 5805 5806 5807 5808 5808 5809 5810 5811 5812 5813 5814 5814 5815 5816 5817 5817 5818 5819 5819 5820 5821 5821 5821 5822
5768 5771 5772 5773 5774 5776 5777 5778 5779 5781 5782 5784 5785 5787 5788 5790 5791 5792 5793 5794 5795 5796 5797 5798 5799 5799 5800 5801 5801 5802 5803 5804 5804 5805 5806 5807 5808 5808 5809 5810 5811 5811 5812 5812 5813 5814 5814 5815 5815
5764 5767 5767 5769 5770 5771 5772 5773 5775 5776 5777 5779 5780 5782 5783 5785 5786 5787 5788 5788 5789 5790 5791 5792 5792 5793 5794 5794 5795 5795 5796 5797 5797 5798 5799 5799 5800 5801 5802 5803 5803 5804 5805 5805 5806 5806 5807 5808 5808
5759 5762 5763 5764 5765 5766 5767 5768 5770 5771 5773 5774 5775 5776 5778 5779 5780 5781 5782 5783 5784 5784 5785 5786 5786 5787 5787 5787 5788 5788 5789 5789 5790 5790 5791 5792 5792 5793 5794 5795 5795 5796 5797 5797 5798 5798 5799 5800 5800
5755 5757 5758 5759 5760 5761 5762 5763 5765 5766 5768 5769 5770 5771 5772 5774 5775 5776 5776 5777 5777 5778 5778 5779 5779 5780 5780 5780 5780 5780 5781 5781 5782 5782 5783 5783 5784 5785 5785 5786 5787 5787 5788 5789 5789 5789 5790 5791 5792
5750 5751 5752 5754 5754 5756 5757 5758 5760 5761 5763 5763 5764 5766 5767 5768 5769 5770 5770 5771 5771 5771 5772 5772 5772 5772 5772 5772 5773 5773 5773 5773 5773 5774 5774 5775 5775 5776 5776 5777 5778 5778 5779 5779 5780 5780 5781 5781 5782
5744 5746 5747 5749 5749 5751 5752 5753 5755 5756 5757 5758 5759 5760 5761 5762 5763 5763 5764 5764 5764 5764 5764 5764 5764 5764 5764 5764 5764 5764 5764 5764 5764 5765 5765 5765 5766 5766 5767 5767 5768 5768 5769 5769 5770 5770 5771 5771 5772
5739 5741 5742 5743 5745 5746 5747 5749 5750 5751 5752 5753 5753 5754 5755 5755 5756 5756 5756 5757 5757 5757 5757 5757 5757 5756 5756 5755 5755 5755 5755 5755 5755 5755 5755 5755 5755 5756 5756 5757 5757 5758 5758 5758 5759 5760 5760 5760 5761
5733 5735 5737 5738 5739 5741 5742 5744 5745 5745 5746 5747 5748 5748 5749 5749 5749 5749 5749 5749 5749 5749 5749 5749 5748 5748 5747 5746 5746 5746 5745 5745 5744 5744 5744 5744 5744 5745 5745 5745 5746 5746 5746 5747 5747 5748 5748 5749 5749
5727 5729 5731 5734 5734 5735 5738 5740 5739 5739 5740 5741 5742 5742 5742 5742 5742 5741 5741 5741 5741 5741 5740 5739 5739 5738 5738 5737 5737 5736 5735 5734 5733 5733 5733 5732 5732 5732 5732 5733 5733 5733 5733 5734 5734 5735 5735 5736 5736
5721 5723 5725 5728 5728 5729 5731 5733 5733 5733 5734 5735 5735 5736 5736 5735 5735 5734 5733 5733 5732 5732 5731 5730 5729 5729 5728 5728 5727 5726 5725 5724 5722 5721 5720 5720 5719 5719 5719 5720 5720 5720 5720 5720 5720 5721 5721 5722 5722
5716 5717 5719 5720 5722 5723 5724 5726 5727 5727 5728 5728 5729 5729 5729 5728 5728 5727 5726 5725 5724 5723 5722 5721 5720 5719 5719 5718 5717 5716 5715 5713 5711 5709 5707 5707 5706 5706 5706 5706 5706 5706 5706 5706 5706 5706 5707 5707 5707
5708 5709 5711 5714 5714 5715 5717 5719 5719 5720 5721 5721 5721 5721 5721 5721 5720 5719 5718 5716 5715 5714 5712 5711 5710 5710 5710 5709 5708 5706 5704 5701 5699 5696 5695 5693 5693 5692 5693 5692 5692 5692 5692 5691 5691 5692 5692 5692 5691
5700 5702 5704 5706 5707 5708 5709 5711 5712 5712 5714 5714 5714 5714 5714 5713 5712 5711 5710 5708 5707 5705 5704 5702 5701 5701 5700 5699 5697 5695 5693 5690 5688 5686 5684 5681 5680 5679 5679 5679 5678 5677 5677 5677 5677 5676 5676 5676 5675
5692 5695 5697 5698 5699 5700 5702 5704 5705 5706 5706 5707 5707 5707 5706 5706 5705 5703 5702 5700 5698 5697 5695 5694 5693 5692 5691 5689 5687 5685 5682 5680 5678 5676 5674 5671 5668 5667 5666 5666 5665 5664 5664 5664 5663 5662 5661 5661 5660
5685 5688 5689 5690 5691 5692 5694 5695 5699 5698 5698 5699 5699 5699 5699 5698 5697 5695 5693 5692 5690 5688 5687 5685 5684 5682 5681 5679 5677 5674 5672 5670 5668 5665 5663 5660 5657 5655 5654 5653 5652 5651 5650 5649 5648 5647 5646 5645 5644
5677 5679 5681 5681 5682 5684 5685 5686 5691 5691 5691 5692 5692 5691 5690 5689 5688 5687 5685 5683 5681 5680 5678 5676 5675 5673 5671 5669 5667 5664 5661 5659 5657 5654 5652 5649 5646 5644 5642 5640 5639 5638 5636 5635 5634 5633 5632 5631 5630
5668 5671 5672 5672 5673 5675 5678 5678 5681 5684 5684 5684 5684 5683 5682 5681 5680 5678 5676 5674 5673 5671 5669 5667 5665 5664 5661 5659 5656 5654 5651 5648 5646 5644 5641 5638 5635 5632 5630 5628 5626 5624 5623 5622 5620 5619 5618 5616 5615
5660 5663 5663 5663 5664 5667 5670 5670 5673 5676 5676 5676 5675 5674 5673 5672 5671 5669 5667 5666 5664 5662 5660 5658 5656 5654 5651 5649 5646 5643 5641 5637 5635 5632 5630 5627 5624 5621 5619 5616 5613 5611 5610 5608 5606 5605 5604 5602 5601
5651 5654 5656 5657 5657 5660 5661 5662 5666 5667 5667 5667 5667 5666 5665 5664 5662 5660 5658 5656 5654 5653 5651 5648 5646 5643 5641 5638 5636 5633 5630 5627 5624 5621 5618 5615 5613 5610 5607 5604 5601 5598 5596 5594 5592 5591 5589 5588 5587
5642 5644 5647 5648 5648 5649 5651 5654 5657 5658 5658 5658 5658 5657 5656 5655 5653 5651 5649 5647 5645 5643 5641 5638 5635 5633 5630 5627 5625 5622 5619 5616 5613 5610 5607 5604 5601 5598 5595 5591 5588 5586 5583 5580 5578 5576 5575 5574 5572
5633 5636 5638 5638 5639 5640 5642 5645 5649 5650 5650 5650 5649 5648 5647 5646 5644 5642 5640 5638 5635 5633 5630 5627 5625 5622 5619 5616 5613 5611 5608 5605 5602 5598 5595 5592 5588 5585 5582 5579 5576 5573 5570 5567 5564 5562 5560 5559 5557
5625 5627 5628 5629 5630 5632 5633 5640 5641 5641 5641 5641 5640 5639 5638 5637 5635 5633 5631 5629 5626 5623 5620 5617 5615 5612 5609 5605 5602 5599 5596 5593 5590 5586 5583 5580 5576 5573 5569 5566 5563 5560 5556 5553 5550 5548 5546 5544 5543
5614 5617 5620 5622 5623 5624 5625 5632 5632 5632 5631 5631 5631 5630 5629 5628 5626 5624 5622 5619 5616 5613 5610 5607 5605 5602 5598 5595 5591 5588 5585 5581 5578 5575 5571 5568 5564 5560 5557 5553 5550 5547 5543 5540 5537 5534 5531 5529 5528